This is the latest recevied weather packets stored in our database for station/object K1ZK-13. If no packets are shown the sender has not sent any weather packets the latest 10 day(s).
| Time | Temp. | Humidity | Pressure | Rain* | Wind** | Luminosity | Snow |
|---|---|---|---|---|---|---|---|
| 1787403280 | 20° C | 77% | 1019.9 hPa | 0 mm | - | 264 W/m² | - |
| 1787402977 | 18.89° C | 79% | 1020 hPa | 0 mm | - | 231 W/m² | - |
| 1787402673 | 18.33° C | 79% | 1020.3 hPa | 0 mm | - | 198 W/m² | - |
| 1787402372 | 17.22° C | 83% | 1020 hPa | 0 mm | - | 179 W/m² | - |
| 1787402067 | 17.22° C | 83% | 1020.1 hPa | 0 mm | - | 156 W/m² | - |
| 1787401762 | 16.67° C | 85% | 1020 hPa | 0 mm | - | 145 W/m² | - |
| 1787401458 | 15.56° C | 89% | 1020 hPa | 0 mm | - | 55 W/m² | - |
| 1787401153 | 15.56° C | 89% | 1020.1 hPa | 0 mm | - | 55 W/m² | - |
| 1787400850 | 16.11° C | 88% | 1019.9 hPa | 0 mm | - | 78 W/m² | - |
| 1787400549 | 15° C | 93% | 1020.1 hPa | 0 mm | - | 131 W/m² | - |
| 1787400245 | 15° C | 97% | 1020 hPa | 0 mm | - | 103 W/m² | - |
| 1787399942 | 14.44° C | 99% | 1020 hPa | 0 mm | - | 101 W/m² | - |
| 1787399636 | 13.89° C | 99% | 1020.2 hPa | 0 mm | - | 99 W/m² | - |
| 1787399331 | 13.33° C | 99% | 1020.2 hPa | 0 mm | - | 91 W/m² | - |
| 1787399031 | 13.33° C | 99% | 1020.1 hPa | 0 mm | - | 45 W/m² | - |
| 1787398726 | 12.78° C | 99% | 1020.1 hPa | 0 mm | - | 41 W/m² | - |
| 1787398423 | 12.22° C | 99% | 1020 hPa | 0 mm | - | 37 W/m² | - |
| 1787398118 | 12.22° C | 99% | 1020.1 hPa | 0 mm | - | 35 W/m² | - |
| 1787397817 | 11.67° C | 99% | 1020.1 hPa | 0 mm | - | 33 W/m² | - |
| 1787397513 | 11.67° C | 99% | 1020.1 hPa | 0 mm | - | 32 W/m² | - |
| 1787397208 | 11.67° C | 99% | 1020 hPa | 0 mm | - | 30 W/m² | - |
| 1787396903 | 11.11° C | 99% | 1019.8 hPa | 0 mm | - | 29 W/m² | - |
| 1787396599 | 11.11° C | 99% | 1020 hPa | 0 mm | - | 27 W/m² | - |
| 1787396299 | 10.56° C | 99% | 1019.9 hPa | 0 mm | - | 26 W/m² | - |
| 1787395993 | 10.56° C | 99% | 1019.9 hPa | 0 mm | - | 23 W/m² | - |
* Rain latest hour (hover to see other rain measurements)
** Current wind speed in m/s (hover to see current wind gust speed)